Time,TemperatureF,DewpointF,PressureIn,WindDirection,WindDirectionDegrees,WindSpeedMPH,WindSpeedGustMPH,Humidity,HourlyPrecipIn,Conditions,Clouds,dailyrainin,SoftwareType,DateUTC
2013-06-11 00:01:00,58.1,49.1,29.93,SE,135,0.0,0.0,72,0.00,,,0.00,WUHU216HW,2013-06-11 07:01:00,
2013-06-11 00:06:00,57.9,48.9,29.93,SE,135,0.0,0.0,72,0.00,,,0.00,WUHU216HW,2013-06-11 07:06:00,
2013-06-11 00:11:00,57.9,48.9,29.93,SE,135,0.0,0.0,72,0.00,,,0.00,WUHU216HW,2013-06-11 07:11:00,
2013-06-11 00:16:00,57.7,49.1,29.93,SE,135,0.0,0.0,73,0.00,,,0.00,WUHU216HW,2013-06-11 07:16:00,
2013-06-11 00:21:00,57.7,49.1,29.93,SE,135,0.0,0.0,73,0.00,,,0.00,WUHU216HW,2013-06-11 07:21:00,
2013-06-11 00:26:00,57.7,49.1,29.93,SE,135,0.0,0.0,73,0.00,,,0.00,WUHU216HW,2013-06-11 07:26:00,
2013-06-11 00:32:00,57.7,49.1,29.93,SE,135,0.0,0.0,73,0.00,,,0.00,WUHU216HW,2013-06-11 07:32:00,
2013-06-11 00:37:00,57.7,49.1,29.93,SE,135,0.0,0.0,73,0.00,,,0.00,WUHU216HW,2013-06-11 07:37:00,
2013-06-11 00:42:00,57.7,49.4,29.93,SE,135,0.0,0.0,74,0.00,,,0.00,WUHU216HW,2013-06-11 07:42:00,
2013-06-11 00:47:00,57.7,49.4,29.92,South,180,0.0,0.0,74,0.00,,,0.00,WUHU216HW,2013-06-11 07:47:00,
2013-06-11 00:52:00,57.5,49.2,29.93,SSW,203,0.0,0.0,74,0.00,,,0.00,WUHU216HW,2013-06-11 07:52:00,
2013-06-11 00:57:00,57.3,49.1,29.93,SSW,203,0.0,0.0,74,0.00,,,0.00,WUHU216HW,2013-06-11 07:57:00,
2013-06-11 01:02:00,57.3,49.1,29.93,South,180,0.0,0.0,74,0.00,,,0.00,WUHU216HW,2013-06-11 08:02:00,
2013-06-11 01:07:00,57.3,49.4,29.93,SW,225,0.0,0.0,75,0.00,,,0.00,WUHU216HW,2013-06-11 08:07:00,
2013-06-11 01:12:00,57.3,49.4,29.93,SW,225,0.0,0.0,75,0.00,,,0.00,WUHU216HW,2013-06-11 08:12:00,
2013-06-11 01:17:00,57.3,49.4,29.93,SW,225,0.0,0.0,75,0.00,,,0.00,WUHU216HW,2013-06-11 08:17:00,
2013-06-11 01:22:00,57.3,49.8,29.93,SW,225,0.0,0.0,76,0.00,,,0.00,WUHU216HW,2013-06-11 08:22:00,
2013-06-11 01:27:00,57.3,49.8,29.93,SW,225,0.0,0.0,76,0.00,,,0.00,WUHU216HW,2013-06-11 08:27:00,
2013-06-11 01:32:00,57.3,49.8,29.93,SW,225,0.0,0.0,76,0.00,,,0.00,WUHU216HW,2013-06-11 08:32:00,
2013-06-11 01:37:00,57.3,49.8,29.92,SW,225,0.0,0.0,76,0.00,,,0.00,WUHU216HW,2013-06-11 08:37:00,
2013-06-11 01:42:00,57.3,49.8,29.92,SW,225,0.0,0.0,76,0.00,,,0.00,WUHU216HW,2013-06-11 08:42:00,
2013-06-11 01:47:00,57.3,49.8,29.92,SW,225,0.0,0.0,76,0.00,,,0.00,WUHU216HW,2013-06-11 08:47:00,
2013-06-11 01:53:00,57.3,49.8,29.92,SW,225,0.0,0.0,76,0.00,,,0.00,WUHU216HW,2013-06-11 08:53:00,
2013-06-11 01:58:00,57.3,49.8,29.92,SW,225,0.0,0.0,76,0.00,,,0.00,WUHU216HW,2013-06-11 08:58:00,
2013-06-11 02:03:00,57.3,49.8,29.92,SSW,203,0.0,0.0,76,0.00,,,0.00,WUHU216HW,2013-06-11 09:03:00,
2013-06-11 02:08:00,57.3,49.8,29.92,SSW,203,1.7,1.7,76,0.00,,,0.00,WUHU216HW,2013-06-11 09:08:00,
2013-06-11 02:13:00,57.3,49.8,29.92,SW,225,0.0,1.7,76,0.00,,,0.00,WUHU216HW,2013-06-11 09:13:00,
2013-06-11 02:18:00,57.3,49.8,29.92,SW,225,0.0,1.7,76,0.00,,,0.00,WUHU216HW,2013-06-11 09:18:00,
2013-06-11 02:23:00,57.3,49.8,29.92,SW,225,0.0,0.0,76,0.00,,,0.00,WUHU216HW,2013-06-11 09:23:00,
2013-06-11 02:28:00,57.3,50.1,29.92,SSW,203,2.2,2.2,77,0.00,,,0.00,WUHU216HW,2013-06-11 09:28:00,
2013-06-11 02:33:00,57.3,50.1,29.92,SSW,203,0.0,2.2,77,0.00,,,0.00,WUHU216HW,2013-06-11 09:33:00,
2013-06-11 02:38:00,57.3,50.1,29.92,SSW,203,0.0,2.2,77,0.00,,,0.00,WUHU216HW,2013-06-11 09:38:00,
2013-06-11 02:43:00,57.3,50.1,29.92,SSW,203,0.0,0.0,77,0.00,,,0.00,WUHU216HW,2013-06-11 09:43:00,
2013-06-11 02:48:00,57.2,50.0,29.92,SSW,203,0.0,0.0,77,0.00,,,0.00,WUHU216HW,2013-06-11 09:48:00,
2013-06-11 02:53:00,57.2,50.0,29.91,South,180,0.0,0.0,77,0.00,,,0.00,WUHU216HW,2013-06-11 09:53:00,
2013-06-11 02:59:00,57.2,50.0,29.91,South,180,0.0,0.0,77,0.00,,,0.00,WUHU216HW,2013-06-11 09:59:00,
2013-06-11 03:04:00,57.0,49.8,29.91,SSW,203,0.0,0.0,77,0.00,,,0.00,WUHU216HW,2013-06-11 10:04:00,
2013-06-11 03:09:00,57.0,50.1,29.91,SW,225,0.0,0.0,78,0.00,,,0.00,WUHU216HW,2013-06-11 10:09:00,
2013-06-11 03:14:00,57.0,50.1,29.91,SW,225,0.0,0.0,78,0.00,,,0.00,WUHU216HW,2013-06-11 10:14:00,
2013-06-11 03:19:00,57.0,50.1,29.91,SSW,203,0.0,0.0,78,0.00,,,0.00,WUHU216HW,2013-06-11 10:19:00,
2013-06-11 03:24:00,57.0,50.1,29.91,SSW,203,0.0,0.0,78,0.00,,,0.00,WUHU216HW,2013-06-11 10:24:00,
2013-06-11 03:29:00,57.0,50.1,29.91,SSW,203,0.0,0.0,78,0.00,,,0.00,WUHU216HW,2013-06-11 10:29:00,
2013-06-11 03:34:00,57.0,50.1,29.91,SSW,203,0.0,0.0,78,0.00,,,0.00,WUHU216HW,2013-06-11 10:34:00,
2013-06-11 03:39:00,57.0,50.1,29.90,SSW,203,0.0,0.0,78,0.00,,,0.00,WUHU216HW,2013-06-11 10:39:00,
2013-06-11 03:44:00,57.0,50.1,29.91,SSW,203,0.0,0.0,78,0.00,,,0.00,WUHU216HW,2013-06-11 10:44:00,
2013-06-11 03:50:00,57.0,50.1,29.90,South,180,0.0,0.0,78,0.00,,,0.00,WUHU216HW,2013-06-11 10:50:00,
2013-06-11 03:55:00,57.0,50.1,29.90,South,180,0.0,0.0,78,0.00,,,0.00,WUHU216HW,2013-06-11 10:55:00,
2013-06-11 04:00:00,57.0,50.1,29.90,South,180,0.0,0.0,78,0.00,,,0.00,WUHU216HW,2013-06-11 11:00:00,
2013-06-11 04:05:00,57.0,50.1,29.90,South,180,0.0,0.0,78,0.00,,,0.00,WUHU216HW,2013-06-11 11:05:00,
2013-06-11 04:12:00,57.2,50.3,29.90,South,180,0.0,0.0,78,0.00,,,0.00,WUHU216HW,2013-06-11 11:12:00,
2013-06-11 04:17:00,57.0,50.1,29.91,SSW,203,0.0,0.0,78,0.00,,,0.00,WUHU216HW,2013-06-11 11:17:00,
2013-06-11 04:22:00,57.0,50.1,29.90,SSW,203,0.0,0.0,78,0.00,,,0.00,WUHU216HW,2013-06-11 11:22:00,
2013-06-11 04:27:00,57.0,50.1,29.90,SSW,203,0.0,0.0,78,0.00,,,0.00,WUHU216HW,2013-06-11 11:27:00,
2013-06-11 04:32:00,57.2,50.0,29.90,SSW,203,0.0,0.0,77,0.00,,,0.00,WUHU216HW,2013-06-11 11:32:00,
2013-06-11 04:37:00,57.3,50.1,29.90,SSW,203,0.0,0.0,77,0.00,,,0.00,WUHU216HW,2013-06-11 11:37:00,
2013-06-11 04:42:00,57.3,50.1,29.90,SSW,203,0.0,0.0,77,0.00,,,0.00,WUHU216HW,2013-06-11 11:42:00,
2013-06-11 04:47:00,57.3,50.1,29.91,SSW,203,0.0,0.0,77,0.00,,,0.00,WUHU216HW,2013-06-11 11:47:00,
2013-06-11 04:52:00,57.3,50.1,29.91,SSW,203,0.0,0.0,77,0.00,,,0.00,WUHU216HW,2013-06-11 11:52:00,
2013-06-11 04:58:00,57.3,50.1,29.91,SSW,203,0.0,0.0,77,0.00,,,0.00,WUHU216HW,2013-06-11 11:58:00,
2013-06-11 05:03:00,57.3,50.1,29.91,SSW,203,0.0,0.0,77,0.00,,,0.00,WUHU216HW,2013-06-11 12:03:00,
2013-06-11 05:08:00,57.3,50.1,29.90,SSW,203,0.0,0.0,77,0.00,,,0.00,WUHU216HW,2013-06-11 12:08:00,
2013-06-11 05:13:00,57.3,50.1,29.90,SSW,203,0.0,0.0,77,0.00,,,0.00,WUHU216HW,2013-06-11 12:13:00,
2013-06-11 05:18:00,57.3,50.1,29.90,SSW,203,0.0,0.0,77,0.00,,,0.00,WUHU216HW,2013-06-11 12:18:00,
2013-06-11 05:23:00,57.3,50.1,29.91,SSW,203,0.0,0.0,77,0.00,,,0.00,WUHU216HW,2013-06-11 12:23:00,
2013-06-11 05:28:00,57.3,50.1,29.91,SSW,203,0.0,0.0,77,0.00,,,0.00,WUHU216HW,2013-06-11 12:28:00,
2013-06-11 05:33:00,57.2,50.0,29.90,SSW,203,0.0,0.0,77,0.00,,,0.00,WUHU216HW,2013-06-11 12:33:00,
2013-06-11 05:38:00,57.3,50.1,29.92,SSW,203,0.0,0.0,77,0.00,,,0.00,WUHU216HW,2013-06-11 12:38:00,
2013-06-11 05:43:00,57.3,50.1,29.91,SSW,203,0.0,0.0,77,0.00,,,0.00,WUHU216HW,2013-06-11 12:43:00,
2013-06-11 05:48:00,57.3,50.1,29.92,SSW,203,0.0,0.0,77,0.00,,,0.00,WUHU216HW,2013-06-11 12:48:00,
2013-06-11 05:53:00,57.3,50.1,29.92,SSW,203,0.0,0.0,77,0.00,,,0.00,WUHU216HW,2013-06-11 12:53:00,
2013-06-11 05:58:00,57.3,50.1,29.92,SSW,203,0.0,0.0,77,0.00,,,0.00,WUHU216HW,2013-06-11 12:58:00,
2013-06-11 06:03:00,57.2,50.0,29.92,SSW,203,0.0,0.0,77,0.00,,,0.00,WUHU216HW,2013-06-11 13:03:00,
2013-06-11 06:09:00,57.2,50.0,29.92,SSW,203,0.0,0.0,77,0.00,,,0.00,WUHU216HW,2013-06-11 13:09:00,
2013-06-11 06:14:00,57.3,50.1,29.92,SSW,203,0.0,0.0,77,0.00,,,0.00,WUHU216HW,2013-06-11 13:14:00,
2013-06-11 06:19:00,57.3,50.1,29.92,SSW,203,0.0,0.0,77,0.00,,,0.00,WUHU216HW,2013-06-11 13:19:00,
2013-06-11 06:24:00,57.3,50.1,29.92,SSW,203,0.0,0.0,77,0.00,,,0.00,WUHU216HW,2013-06-11 13:24:00,
2013-06-11 06:29:00,57.2,50.0,29.93,SSW,203,0.0,0.0,77,0.00,,,0.00,WUHU216HW,2013-06-11 13:29:00,
2013-06-11 06:34:00,57.3,50.1,29.92,SSW,203,0.0,0.0,77,0.00,,,0.00,WUHU216HW,2013-06-11 13:34:00,
2013-06-11 06:39:00,57.3,50.1,29.93,SSW,203,0.0,0.0,77,0.00,,,0.00,WUHU216HW,2013-06-11 13:39:00,
2013-06-11 06:44:00,57.3,50.1,29.92,SSW,203,0.0,0.0,77,0.00,,,0.00,WUHU216HW,2013-06-11 13:44:00,
2013-06-11 06:49:00,57.3,50.1,29.92,SSW,203,0.0,0.0,77,0.00,,,0.00,WUHU216HW,2013-06-11 13:49:00,
2013-06-11 06:54:00,57.3,50.1,29.92,SSW,203,0.0,0.0,77,0.00,,,0.00,WUHU216HW,2013-06-11 13:54:00,
2013-06-11 07:00:00,57.3,50.1,29.92,SW,225,0.0,1.5,77,0.00,,,0.00,WUHU216HW,2013-06-11 14:00:00,
2013-06-11 07:05:00,57.2,50.0,29.93,South,180,0.0,1.5,77,0.00,,,0.00,WUHU216HW,2013-06-11 14:05:00,
2013-06-11 07:10:00,57.2,50.0,29.93,SSE,158,0.0,0.0,77,0.00,,,0.00,WUHU216HW,2013-06-11 14:10:00,
2013-06-11 07:15:00,57.2,50.3,29.93,South,180,0.0,0.8,78,0.00,,,0.00,WUHU216HW,2013-06-11 14:15:00,
2013-06-11 07:20:00,57.3,50.5,29.93,South,180,0.0,0.8,78,0.00,,,0.00,WUHU216HW,2013-06-11 14:20:00,
2013-06-11 07:25:00,57.2,50.3,29.93,SSW,203,1.5,1.5,78,0.00,,,0.00,WUHU216HW,2013-06-11 14:25:00,
2013-06-11 07:30:00,57.3,50.5,29.93,SSW,203,0.0,1.5,78,0.00,,,0.00,WUHU216HW,2013-06-11 14:30:00,
2013-06-11 07:35:00,57.3,50.5,29.93,SW,225,0.0,1.5,78,0.00,,,0.00,WUHU216HW,2013-06-11 14:35:00,
2013-06-11 07:40:00,57.3,50.5,29.93,SSW,203,0.0,1.5,78,0.00,,,0.00,WUHU216HW,2013-06-11 14:40:00,
2013-06-11 07:46:00,57.3,50.5,29.94,SSW,203,0.0,1.5,78,0.00,,,0.00,WUHU216HW,2013-06-11 14:46:00,
2013-06-11 07:51:00,57.3,50.5,29.94,SW,225,1.1,1.1,78,0.00,,,0.00,WUHU216HW,2013-06-11 14:51:00,
2013-06-11 07:56:00,57.3,50.5,29.94,SSW,203,0.0,1.7,78,0.00,,,0.00,WUHU216HW,2013-06-11 14:56:00,
2013-06-11 08:01:00,57.5,50.7,29.94,SW,225,0.0,3.1,78,0.00,,,0.00,WUHU216HW,2013-06-11 15:01:00,
2013-06-11 08:06:00,57.5,50.7,29.94,SW,225,0.0,3.1,78,0.00,,,0.00,WUHU216HW,2013-06-11 15:06:00,
2013-06-11 08:11:00,57.5,50.7,29.94,SSW,203,0.0,0.0,78,0.00,,,0.00,WUHU216HW,2013-06-11 15:11:00,
2013-06-11 08:16:00,57.7,50.9,29.94,SSW,203,0.0,0.0,78,0.00,,,0.00,WUHU216HW,2013-06-11 15:16:00,
2013-06-11 08:21:00,57.7,50.9,29.95,SW,225,0.0,0.0,78,0.00,,,0.00,WUHU216HW,2013-06-11 15:21:00,
2013-06-11 08:26:00,57.7,50.9,29.95,SW,225,0.0,0.0,78,0.00,,,0.00,WUHU216HW,2013-06-11 15:26:00,
2013-06-11 08:31:00,57.7,50.9,29.95,SW,225,0.0,0.0,78,0.00,,,0.00,WUHU216HW,2013-06-11 15:31:00,
2013-06-11 08:36:00,57.9,51.0,29.95,SSW,203,0.0,0.0,78,0.00,,,0.00,WUHU216HW,2013-06-11 15:36:00,
2013-06-11 08:41:00,57.9,51.0,29.95,SSW,203,0.4,0.4,78,0.00,,,0.00,WUHU216HW,2013-06-11 15:41:00,
2013-06-11 08:46:00,57.9,51.0,29.96,SSW,203,0.0,0.4,78,0.00,,,0.00,WUHU216HW,2013-06-11 15:46:00,
2013-06-11 08:52:00,58.1,51.2,29.96,South,180,0.0,0.0,78,0.00,,,0.00,WUHU216HW,2013-06-11 15:52:00,
2013-06-11 08:57:00,57.9,51.0,29.96,SW,225,0.0,0.0,78,0.00,,,0.00,WUHU216HW,2013-06-11 15:57:00,
2013-06-11 09:02:00,58.1,51.2,29.96,SSW,203,1.1,1.5,78,0.00,,,0.00,WUHU216HW,2013-06-11 16:02:00,
2013-06-11 09:07:00,58.1,51.2,29.96,SSW,203,0.0,1.5,78,0.00,,,0.00,WUHU216HW,2013-06-11 16:07:00,
2013-06-11 09:12:00,58.1,51.2,29.96,SSW,203,0.0,1.1,78,0.00,,,0.00,WUHU216HW,2013-06-11 16:12:00,
2013-06-11 09:17:00,58.1,51.0,29.96,SW,225,0.0,0.0,78,0.00,,,0.00,WUHU216HW,2013-06-11 16:17:00,
2013-06-11 09:22:00,58.1,51.2,29.96,SSW,203,1.5,1.5,78,0.00,,,0.00,WUHU216HW,2013-06-11 16:22:00,
2013-06-11 09:27:00,58.1,51.2,29.96,SW,225,2.4,2.4,78,0.00,,,0.00,WUHU216HW,2013-06-11 16:27:00,
2013-06-11 09:32:00,58.1,50.9,29.97,WSW,248,0.0,3.3,77,0.00,,,0.00,WUHU216HW,2013-06-11 16:32:00,
2013-06-11 09:37:00,58.1,50.9,29.96,SW,225,0.0,3.3,77,0.00,,,0.00,WUHU216HW,2013-06-11 16:37:00,
2013-06-11 09:42:00,58.2,51.0,29.97,SSW,203,0.0,0.0,77,0.00,,,0.00,WUHU216HW,2013-06-11 16:42:00,
2013-06-11 09:47:00,58.4,51.2,29.97,WSW,248,0.0,0.0,77,0.00,,,0.00,WUHU216HW,2013-06-11 16:47:00,
2013-06-11 09:52:00,58.6,51.4,29.97,SW,225,0.0,0.0,77,0.00,,,0.00,WUHU216HW,2013-06-11 16:52:00,
2013-06-11 09:57:00,58.8,51.6,29.97,SW,225,0.0,0.0,77,0.00,,,0.00,WUHU216HW,2013-06-11 16:57:00,
2013-06-11 10:03:00,58.8,51.6,29.96,West,270,0.0,1.3,77,0.00,,,0.00,WUHU216HW,2013-06-11 17:03:00,
2013-06-11 10:08:00,58.8,51.6,29.96,SSW,203,0.0,2.6,77,0.00,,,0.00,WUHU216HW,2013-06-11 17:08:00,
2013-06-11 10:13:00,59.0,51.4,29.96,SSW,203,0.0,2.6,76,0.00,,,0.00,WUHU216HW,2013-06-11 17:13:00,
2013-06-11 10:18:00,59.1,51.6,29.97,SW,225,0.0,5.3,76,0.00,,,0.00,WUHU216HW,2013-06-11 17:18:00,
2013-06-11 10:23:00,59.3,51.8,29.96,South,180,0.0,5.3,76,0.00,,,0.00,WUHU216HW,2013-06-11 17:23:00,
2013-06-11 10:28:00,59.5,51.9,29.96,SSW,203,0.0,0.6,76,0.00,,,0.00,WUHU216HW,2013-06-11 17:28:00,
2013-06-11 10:33:00,59.5,51.9,29.97,SSE,158,0.0,0.6,76,0.00,,,0.00,WUHU216HW,2013-06-11 17:33:00,
2013-06-11 10:38:00,60.0,52.5,29.96,SW,225,0.0,1.1,76,0.00,,,0.00,WUHU216HW,2013-06-11 17:38:00,
2013-06-11 10:43:00,60.4,52.5,29.97,SSE,158,0.0,1.1,75,0.00,,,0.00,WUHU216HW,2013-06-11 17:43:00,
2013-06-11 10:48:00,60.4,52.3,29.97,SW,225,2.4,2.4,74,0.00,,,0.00,WUHU216HW,2013-06-11 17:48:00,
2013-06-11 10:54:00,60.6,52.3,29.97,South,180,0.0,6.0,74,0.00,,,0.00,WUHU216HW,2013-06-11 17:54:00,
2013-06-11 10:59:00,60.6,52.3,29.97,SSW,203,0.0,6.0,74,0.00,,,0.00,WUHU216HW,2013-06-11 17:59:00,
2013-06-11 11:04:00,60.9,52.6,29.97,SE,135,0.0,2.4,74,0.00,,,0.00,WUHU216HW,2013-06-11 18:04:00,
2013-06-11 11:09:00,61.3,52.6,29.97,SW,225,0.0,0.0,73,0.00,,,0.00,WUHU216HW,2013-06-11 18:09:00,
2013-06-11 11:14:00,61.7,52.6,29.97,SSW,203,1.5,1.5,72,0.00,,,0.00,WUHU216HW,2013-06-11 18:14:00,
2013-06-11 11:19:00,62.0,52.7,29.97,SSW,203,7.8,7.8,72,0.00,,,0.00,WUHU216HW,2013-06-11 18:19:00,
2013-06-11 11:24:00,62.6,53.0,29.97,SSE,158,0.0,7.8,71,0.00,,,0.00,WUHU216HW,2013-06-11 18:24:00,
2013-06-11 11:29:00,63.1,53.2,29.97,SW,225,5.5,7.8,70,0.00,,,0.00,WUHU216HW,2013-06-11 18:29:00,
2013-06-11 11:34:00,63.3,52.9,29.97,SSW,203,3.5,5.5,69,0.00,,,0.00,WUHU216HW,2013-06-11 18:34:00,
2013-06-11 11:39:00,63.6,53.3,29.97,SW,225,5.3,6.7,69,0.00,,,0.00,WUHU216HW,2013-06-11 18:39:00,
2013-06-11 11:44:00,64.2,53.4,29.97,SW,225,5.1,6.7,68,0.00,,,0.00,WUHU216HW,2013-06-11 18:44:00,
2013-06-11 11:49:00,64.5,53.2,29.97,SSW,203,2.9,5.3,67,0.00,,,0.00,WUHU216HW,2013-06-11 18:49:00,
2013-06-11 11:54:00,64.7,53.0,29.97,SSW,203,2.0,4.2,66,0.00,,,0.00,WUHU216HW,2013-06-11 18:54:00,
2013-06-11 11:59:00,64.7,53.0,29.98,SW,225,2.6,4.2,66,0.00,,,0.00,WUHU216HW,2013-06-11 18:59:00,
2013-06-11 12:04:00,65.1,53.0,29.98,West,270,0.0,2.6,65,0.00,,,0.00,WUHU216HW,2013-06-11 19:04:00,
2013-06-11 12:09:00,65.1,53.0,29.98,SSW,203,0.0,2.6,65,0.00,,,0.00,WUHU216HW,2013-06-11 19:09:00,
2013-06-11 12:14:00,65.8,53.7,29.98,SSE,158,2.4,2.4,65,0.00,,,0.00,WUHU216HW,2013-06-11 19:14:00,
2013-06-11 12:19:00,66.3,53.7,29.98,SSE,158,0.0,3.3,64,0.00,,,0.00,WUHU216HW,2013-06-11 19:19:00,
2013-06-11 12:25:00,66.3,53.3,29.98,SSE,158,0.0,3.3,63,0.00,,,0.00,WUHU216HW,2013-06-11 19:25:00,
2013-06-11 12:30:00,66.5,53.5,29.98,ESE,113,0.0,0.0,63,0.00,,,0.00,WUHU216HW,2013-06-11 19:30:00,
2013-06-11 12:35:00,67.1,53.6,29.98,SSE,158,0.0,1.1,62,0.00,,,0.00,WUHU216HW,2013-06-11 19:35:00,
2013-06-11 12:40:00,67.2,54.2,29.98,SSE,158,0.0,2.9,63,0.00,,,0.00,WUHU216HW,2013-06-11 19:40:00,
2013-06-11 12:45:00,67.6,54.5,29.97,South,180,0.0,4.4,63,0.00,,,0.00,WUHU216HW,2013-06-11 19:45:00,
2013-06-11 12:50:00,67.8,55.1,29.97,SSW,203,0.6,4.4,64,0.00,,,0.00,WUHU216HW,2013-06-11 19:50:00,
2013-06-11 12:55:00,68.1,55.0,29.97,SW,225,5.1,6.9,63,0.00,,,0.00,WUHU216HW,2013-06-11 19:55:00,
2013-06-11 13:00:00,68.5,54.5,29.97,West,270,3.3,6.9,61,0.00,,,0.00,WUHU216HW,2013-06-11 20:00:00,
2013-06-11 13:05:00,68.3,53.9,29.97,SSE,158,3.8,3.8,60,0.00,,,0.00,WUHU216HW,2013-06-11 20:05:00,
2013-06-11 13:10:00,68.3,53.9,29.97,SW,225,1.3,3.8,60,0.00,,,0.00,WUHU216HW,2013-06-11 20:10:00,
2013-06-11 13:15:00,68.3,53.4,29.96,SSW,203,3.1,6.2,59,0.00,,,0.00,WUHU216HW,2013-06-11 20:15:00,
2013-06-11 13:20:00,68.7,53.6,29.96,SSW,203,4.6,6.2,59,0.00,,,0.00,WUHU216HW,2013-06-11 20:20:00,
2013-06-11 13:25:00,69.0,53.6,29.96,SSW,203,0.0,5.1,58,0.00,,,0.00,WUHU216HW,2013-06-11 20:25:00,
2013-06-11 13:30:00,69.2,53.8,29.96,SSW,203,5.8,5.8,58,0.00,,,0.00,WUHU216HW,2013-06-11 20:30:00,
2013-06-11 13:36:00,69.4,54.0,29.96,SW,225,0.0,5.8,58,0.00,,,0.00,WUHU216HW,2013-06-11 20:36:00,
2013-06-11 13:41:00,69.4,53.5,29.96,South,180,3.5,3.5,57,0.00,,,0.00,WUHU216HW,2013-06-11 20:41:00,
2013-06-11 13:46:00,69.4,54.0,29.96,SW,225,4.2,4.2,58,0.00,,,0.00,WUHU216HW,2013-06-11 20:46:00,
2013-06-11 13:51:00,69.4,53.5,29.96,SSE,158,1.7,5.8,57,0.00,,,0.00,WUHU216HW,2013-06-11 20:51:00,
2013-06-11 13:56:00,69.0,53.1,29.96,SSW,203,1.1,5.8,57,0.00,,,0.00,WUHU216HW,2013-06-11 20:56:00,
2013-06-11 14:01:00,68.7,53.3,29.96,South,180,6.2,6.2,58,0.00,,,0.00,WUHU216HW,2013-06-11 21:01:00,
2013-06-11 14:06:00,68.9,53.5,29.96,SW,225,4.6,6.2,58,0.00,,,0.00,WUHU216HW,2013-06-11 21:06:00,
2013-06-11 14:11:00,68.9,53.5,29.95,SE,135,0.8,4.6,58,0.00,,,0.00,WUHU216HW,2013-06-11 21:11:00,
2013-06-11 14:16:00,69.0,53.6,29.95,WSW,248,4.2,4.2,58,0.00,,,0.00,WUHU216HW,2013-06-11 21:16:00,
2013-06-11 14:21:00,69.2,53.6,29.95,South,180,3.1,4.2,58,0.00,,,0.00,WUHU216HW,2013-06-11 21:21:00,
2013-06-11 14:27:00,69.6,54.7,29.95,West,270,0.0,5.1,59,0.00,,,0.00,WUHU216HW,2013-06-11 21:27:00,
2013-06-11 14:32:00,69.4,54.0,29.95,SSW,203,0.0,5.1,58,0.00,,,0.00,WUHU216HW,2013-06-11 21:32:00,
2013-06-11 14:37:00,69.2,54.3,29.94,SSW,203,4.0,4.0,59,0.00,,,0.00,WUHU216HW,2013-06-11 21:37:00,
2013-06-11 14:42:00,69.4,54.5,29.94,SW,225,1.7,5.3,59,0.00,,,0.00,WUHU216HW,2013-06-11 21:42:00,
2013-06-11 14:47:00,69.6,54.7,29.94,South,180,3.5,6.9,59,0.00,,,0.00,WUHU216HW,2013-06-11 21:47:00,
2013-06-11 14:52:00,69.9,55.0,29.94,SSW,203,0.0,6.9,59,0.00,,,0.00,WUHU216HW,2013-06-11 21:52:00,
2013-06-11 14:57:00,69.6,54.7,29.94,SW,225,0.0,6.9,59,0.00,,,0.00,WUHU216HW,2013-06-11 21:57:00,
2013-06-11 15:02:00,69.6,54.2,29.94,SSE,158,2.4,6.9,58,0.00,,,0.00,WUHU216HW,2013-06-11 22:02:00,
2013-06-11 15:07:00,69.4,54.0,29.94,SSW,203,1.7,6.7,58,0.00,,,0.00,WUHU216HW,2013-06-11 22:07:00,
2013-06-11 15:12:00,69.4,54.5,29.93,SSE,158,2.2,2.4,59,0.00,,,0.00,WUHU216HW,2013-06-11 22:12:00,
2013-06-11 15:17:00,69.9,54.5,29.93,SSE,158,2.9,4.4,58,0.00,,,0.00,WUHU216HW,2013-06-11 22:17:00,
2013-06-11 15:22:00,69.9,54.5,29.93,ESE,113,0.0,4.4,58,0.00,,,0.00,WUHU216HW,2013-06-11 22:22:00,
2013-06-11 15:27:00,69.9,54.5,29.93,West,270,2.9,2.9,58,0.00,,,0.00,WUHU216HW,2013-06-11 22:27:00,
2013-06-11 15:32:00,70.5,55.0,29.93,East,90,6.4,6.4,58,0.00,,,0.00,WUHU216HW,2013-06-11 22:32:00,
2013-06-11 15:37:00,70.8,54.8,29.93,SSE,158,4.6,6.4,57,0.00,,,0.00,WUHU216HW,2013-06-11 22:37:00,
2013-06-11 15:43:00,71.2,55.1,29.93,South,180,1.3,5.1,57,0.00,,,0.00,WUHU216HW,2013-06-11 22:43:00,
2013-06-11 15:48:00,70.8,54.8,29.93,WSW,248,9.6,9.6,57,0.00,,,0.00,WUHU216HW,2013-06-11 22:48:00,
2013-06-11 15:53:00,70.3,54.5,29.93,SSW,203,2.0,9.6,57,0.00,,,0.00,WUHU216HW,2013-06-11 22:53:00,
2013-06-11 15:58:00,70.3,54.3,29.93,SE,135,3.8,6.9,57,0.00,,,0.00,WUHU216HW,2013-06-11 22:58:00,
2013-06-11 16:03:00,70.3,54.3,29.93,South,180,4.0,6.4,57,0.00,,,0.00,WUHU216HW,2013-06-11 23:03:00,
2013-06-11 16:08:00,70.3,54.3,29.94,SW,225,8.2,9.1,57,0.00,,,0.00,WUHU216HW,2013-06-11 23:08:00,
2013-06-11 16:13:00,70.1,54.2,29.94,South,180,5.5,9.1,57,0.00,,,0.00,WUHU216HW,2013-06-11 23:13:00,
2013-06-11 16:18:00,69.8,53.8,29.94,SSE,158,5.3,8.2,57,0.00,,,0.00,WUHU216HW,2013-06-11 23:18:00,
2013-06-11 16:23:00,68.7,53.3,29.94,SE,135,5.3,13.1,58,0.00,,,0.00,WUHU216HW,2013-06-11 23:23:00,
2013-06-11 16:28:00,68.0,53.1,29.93,SW,225,5.5,13.1,59,0.00,,,0.00,WUHU216HW,2013-06-11 23:28:00,
2013-06-11 16:33:00,67.6,52.7,29.93,ENE,68,1.1,13.1,59,0.00,,,0.00,WUHU216HW,2013-06-11 23:33:00,
2013-06-11 16:38:00,67.2,52.9,29.93,SE,135,1.5,13.1,60,0.00,,,0.00,WUHU216HW,2013-06-11 23:38:00,
2013-06-11 16:43:00,66.9,52.6,29.93,SW,225,1.7,5.5,60,0.00,,,0.00,WUHU216HW,2013-06-11 23:43:00,
2013-06-11 16:48:00,66.9,53.0,29.93,SSE,158,5.5,8.7,61,0.00,,,0.00,WUHU216HW,2013-06-11 23:48:00,
2013-06-11 16:53:00,67.1,53.2,29.93,WSW,248,2.2,8.7,61,0.00,,,0.00,WUHU216HW,2013-06-11 23:53:00,
2013-06-11 16:58:00,67.1,53.2,29.92,SE,135,8.0,8.0,61,0.00,,,0.00,WUHU216HW,2013-06-11 23:58:00,
2013-06-11 17:03:00,67.2,53.3,29.92,SSE,158,4.2,8.0,61,0.00,,,0.00,WUHU216HW,2013-06-12 00:03:00,
2013-06-11 17:08:00,67.8,53.4,29.92,West,270,5.3,8.0,60,0.00,,,0.00,WUHU216HW,2013-06-12 00:08:00,
2013-06-11 17:13:00,67.6,53.2,29.92,SW,225,2.9,6.9,60,0.00,,,0.00,WUHU216HW,2013-06-12 00:13:00,
2013-06-11 17:18:00,67.6,53.2,29.92,WSW,248,0.0,6.9,60,0.00,,,0.00,WUHU216HW,2013-06-12 00:18:00,
2013-06-11 17:23:00,67.2,52.9,29.92,SSE,158,5.5,11.1,60,0.00,,,0.00,WUHU216HW,2013-06-12 00:23:00,
2013-06-11 17:28:00,67.2,53.3,29.92,SE,135,1.7,11.1,61,0.00,,,0.00,WUHU216HW,2013-06-12 00:28:00,
2013-06-11 17:33:00,67.2,53.3,29.92,SSE,158,4.6,7.8,61,0.00,,,0.00,WUHU216HW,2013-06-12 00:33:00,
2013-06-11 17:38:00,67.6,53.6,29.92,West,270,5.3,5.5,61,0.00,,,0.00,WUHU216HW,2013-06-12 00:38:00,
2013-06-11 17:43:00,67.2,53.3,29.92,SSE,158,3.3,5.3,61,0.00,,,0.00,WUHU216HW,2013-06-12 00:43:00,
2013-06-11 17:48:00,66.7,53.2,29.92,SSE,158,3.8,8.7,62,0.00,,,0.00,WUHU216HW,2013-06-12 00:48:00,
2013-06-11 17:53:00,66.9,53.4,29.92,South,180,0.0,8.7,62,0.00,,,0.00,WUHU216HW,2013-06-12 00:53:00,
2013-06-11 17:59:00,66.3,52.5,29.92,South,180,5.5,8.2,61,0.00,,,0.00,WUHU216HW,2013-06-12 00:59:00,
2013-06-11 18:04:00,66.0,52.6,29.91,West,270,3.3,8.2,62,0.00,,,0.00,WUHU216HW,2013-06-12 01:04:00,
2013-06-11 18:09:00,65.8,52.8,29.91,SSE,158,2.0,5.1,63,0.00,,,0.00,WUHU216HW,2013-06-12 01:09:00,
2013-06-11 18:14:00,65.4,52.5,29.91,SE,135,4.2,5.1,63,0.00,,,0.00,WUHU216HW,2013-06-12 01:14:00,
2013-06-11 18:19:00,65.4,52.5,29.91,SSE,158,5.3,5.3,63,0.00,,,0.00,WUHU216HW,2013-06-12 01:19:00,
2013-06-11 18:24:00,65.4,52.5,29.91,SSE,158,1.5,5.3,63,0.00,,,0.00,WUHU216HW,2013-06-12 01:24:00,
2013-06-11 18:29:00,65.3,52.3,29.91,South,180,6.0,6.0,63,0.00,,,0.00,WUHU216HW,2013-06-12 01:29:00,
2013-06-11 18:34:00,65.1,52.1,29.90,SE,135,4.9,6.0,63,0.00,,,0.00,WUHU216HW,2013-06-12 01:34:00,
2013-06-11 18:39:00,65.1,52.1,29.90,South,180,0.6,7.1,63,0.00,,,0.00,WUHU216HW,2013-06-12 01:39:00,
2013-06-11 18:44:00,64.7,51.8,29.90,NW,315,0.0,7.1,63,0.00,,,0.00,WUHU216HW,2013-06-12 01:44:00,
2013-06-11 18:49:00,64.2,51.7,29.90,SE,135,6.0,6.0,64,0.00,,,0.00,WUHU216HW,2013-06-12 01:49:00,
2013-06-11 18:54:00,63.8,51.3,29.90,South,180,6.9,6.9,64,0.00,,,0.00,WUHU216HW,2013-06-12 01:54:00,
2013-06-11 18:59:00,64.0,51.9,29.90,SE,135,3.3,6.9,65,0.00,,,0.00,WUHU216HW,2013-06-12 01:59:00,
2013-06-11 19:04:00,64.2,51.7,29.90,South,180,4.4,4.4,64,0.00,,,0.00,WUHU216HW,2013-06-12 02:04:00,
2013-06-11 19:09:00,63.6,51.2,29.90,SW,225,4.2,4.4,64,0.00,,,0.00,WUHU216HW,2013-06-12 02:09:00,
2013-06-11 19:14:00,63.1,51.1,29.90,South,180,5.1,5.1,65,0.00,,,0.00,WUHU216HW,2013-06-12 02:14:00,
2013-06-11 19:19:00,63.1,51.1,29.89,SSE,158,0.0,5.1,65,0.00,,,0.00,WUHU216HW,2013-06-12 02:19:00,
2013-06-11 19:24:00,63.5,51.4,29.89,SE,135,1.5,4.2,65,0.00,,,0.00,WUHU216HW,2013-06-12 02:24:00,
2013-06-11 19:29:00,63.1,50.7,29.89,SW,225,4.9,4.9,64,0.00,,,0.00,WUHU216HW,2013-06-12 02:29:00,
2013-06-11 19:34:00,63.1,51.1,29.89,South,180,0.0,4.9,65,0.00,,,0.00,WUHU216HW,2013-06-12 02:34:00,
2013-06-11 19:39:00,63.1,51.1,29.89,SSW,203,1.7,2.6,65,0.00,,,0.00,WUHU216HW,2013-06-12 02:39:00,
2013-06-11 19:44:00,63.1,51.1,29.89,ESE,113,1.3,1.7,65,0.00,,,0.00,WUHU216HW,2013-06-12 02:44:00,
2013-06-11 19:49:00,63.5,51.4,29.89,SSW,203,0.0,3.5,65,0.00,,,0.00,WUHU216HW,2013-06-12 02:49:00,
2013-06-11 19:55:00,63.3,51.3,29.89,SSE,158,0.0,6.2,65,0.00,,,0.00,WUHU216HW,2013-06-12 02:55:00,
2013-06-11 20:00:00,63.3,51.3,29.89,SSW,203,1.1,6.2,65,0.00,,,0.00,WUHU216HW,2013-06-12 03:00:00,
2013-06-11 20:05:00,63.1,51.1,29.89,SW,225,3.5,3.5,65,0.00,,,0.00,WUHU216HW,2013-06-12 03:05:00,
2013-06-11 20:10:00,63.1,51.1,29.88,South,180,2.6,3.5,65,0.00,,,0.00,WUHU216HW,2013-06-12 03:10:00,
2013-06-11 20:15:00,63.1,51.5,29.88,SSE,158,0.0,2.6,66,0.00,,,0.00,WUHU216HW,2013-06-12 03:15:00,
2013-06-11 20:20:00,63.1,51.1,29.88,SSE,158,2.6,2.6,65,0.00,,,0.00,WUHU216HW,2013-06-12 03:20:00,
2013-06-11 20:25:00,63.1,51.1,29.88,SSE,158,0.4,2.6,65,0.00,,,0.00,WUHU216HW,2013-06-12 03:25:00,
2013-06-11 20:30:00,62.9,51.3,29.88,SW,225,0.0,0.4,66,0.00,,,0.00,WUHU216HW,2013-06-12 03:30:00,
2013-06-11 20:35:00,62.7,51.2,29.88,SSE,158,0.0,0.0,66,0.00,,,0.00,WUHU216HW,2013-06-12 03:35:00,
2013-06-11 20:40:00,62.7,51.2,29.88,WSW,248,0.0,0.2,66,0.00,,,0.00,WUHU216HW,2013-06-12 03:40:00,
2013-06-11 20:45:00,62.7,51.2,29.88,SSE,158,0.0,0.2,66,0.00,,,0.00,WUHU216HW,2013-06-12 03:45:00,
2013-06-11 20:50:00,62.6,51.4,29.88,South,180,0.0,0.0,67,0.00,,,0.00,WUHU216HW,2013-06-12 03:50:00,
2013-06-11 20:55:00,62.4,50.8,29.88,SSE,158,0.0,2.0,66,0.00,,,0.00,WUHU216HW,2013-06-12 03:55:00,
2013-06-11 21:00:00,62.2,50.7,29.88,SSE,158,0.0,2.0,66,0.00,,,0.00,WUHU216HW,2013-06-12 04:00:00,
2013-06-11 21:01:00,62.2,50.7,29.88,SSE,158,0.0,2.0,66,0.00,,,0.00,WUHU216HW,2013-06-12 04:01:00,
2013-06-11 21:02:00,62.2,50.7,29.88,SE,135,0.0,0.8,66,0.00,,,0.00,WUHU216HW,2013-06-12 04:02:00,
2013-06-11 21:03:00,62.2,50.7,29.89,SE,135,0.0,0.8,66,0.00,,,0.00,WUHU216HW,2013-06-12 04:03:00,
2013-06-11 21:08:00,62.0,50.5,29.88,SW,225,0.0,0.0,66,0.00,,,0.00,WUHU216HW,2013-06-12 04:08:00,
2013-06-11 21:13:00,61.7,50.2,29.89,SSW,203,0.0,0.8,66,0.00,,,0.00,WUHU216HW,2013-06-12 04:13:00,
2013-06-11 21:18:00,61.5,50.0,29.89,SSE,158,0.0,0.8,66,0.00,,,0.00,WUHU216HW,2013-06-12 04:18:00,
2013-06-11 21:23:00,61.3,50.3,29.89,SSE,158,1.5,1.5,67,0.00,,,0.00,WUHU216HW,2013-06-12 04:23:00,
2013-06-11 21:28:00,61.3,50.3,29.89,South,180,0.0,1.5,67,0.00,,,0.00,WUHU216HW,2013-06-12 04:28:00,
2013-06-11 21:33:00,61.1,50.1,29.89,SSE,158,0.0,1.5,67,0.00,,,0.00,WUHU216HW,2013-06-12 04:33:00,
2013-06-11 21:38:00,60.9,50.4,29.89,SSE,158,2.9,2.9,68,0.00,,,0.00,WUHU216HW,2013-06-12 04:38:00,
2013-06-11 21:43:00,60.9,50.4,29.89,WSW,248,4.4,4.4,68,0.00,,,0.00,WUHU216HW,2013-06-12 04:43:00,
2013-06-11 21:48:00,60.6,50.0,29.90,South,180,0.0,4.4,68,0.00,,,0.00,WUHU216HW,2013-06-12 04:48:00,
2013-06-11 21:53:00,60.6,50.4,29.90,SE,135,3.8,3.8,69,0.00,,,0.00,WUHU216HW,2013-06-12 04:53:00,
2013-06-11 21:58:00,60.4,50.3,29.90,SSE,158,2.4,3.8,69,0.00,,,0.00,WUHU216HW,2013-06-12 04:58:00,
2013-06-11 22:03:00,60.2,50.1,29.90,SE,135,3.1,3.8,69,0.00,,,0.00,WUHU216HW,2013-06-12 05:03:00,
2013-06-11 22:09:00,60.0,49.9,29.90,SE,135,2.9,4.9,69,0.00,,,0.00,WUHU216HW,2013-06-12 05:09:00,
2013-06-11 22:14:00,59.9,50.1,29.90,SE,135,0.0,4.9,70,0.00,,,0.00,WUHU216HW,2013-06-12 05:14:00,
2013-06-11 22:19:00,59.7,49.5,29.90,ESE,113,3.5,3.5,69,0.00,,,0.00,WUHU216HW,2013-06-12 05:19:00,
2013-06-11 22:24:00,59.7,50.0,29.90,SSE,158,0.0,3.5,70,0.00,,,0.00,WUHU216HW,2013-06-12 05:24:00,
2013-06-11 22:29:00,59.7,50.0,29.90,SW,225,1.5,3.5,70,0.00,,,0.00,WUHU216HW,2013-06-12 05:29:00,
2013-06-11 22:34:00,59.3,49.6,29.90,SSW,203,4.6,4.6,70,0.00,,,0.00,WUHU216HW,2013-06-12 05:34:00,
2013-06-11 22:39:00,59.3,49.6,29.90,South,180,0.0,4.6,70,0.00,,,0.00,WUHU216HW,2013-06-12 05:39:00,
2013-06-11 22:44:00,59.1,49.4,29.90,SSE,158,0.0,4.6,71,0.00,,,0.00,WUHU216HW,2013-06-12 05:44:00,
2013-06-11 22:49:00,59.1,49.8,29.90,South,180,0.0,3.1,71,0.00,,,0.00,WUHU216HW,2013-06-12 05:49:00,
2013-06-11 22:54:00,58.8,49.4,29.90,SW,225,0.0,0.0,71,0.00,,,0.00,WUHU216HW,2013-06-12 05:54:00,
2013-06-11 22:59:00,58.8,49.4,29.90,SE,135,0.6,0.6,71,0.00,,,0.00,WUHU216HW,2013-06-12 05:59:00,
2013-06-11 23:04:00,58.8,49.8,29.90,SSW,203,0.0,1.1,72,0.00,,,0.00,WUHU216HW,2013-06-12 06:04:00,
2013-06-11 23:09:00,58.8,49.8,29.90,SSE,158,0.8,1.1,72,0.00,,,0.00,WUHU216HW,2013-06-12 06:09:00,
2013-06-11 23:15:00,58.6,49.6,29.90,SE,135,2.0,2.0,72,0.00,,,0.00,WUHU216HW,2013-06-12 06:15:00,
2013-06-11 23:20:00,58.4,49.4,29.90,SE,135,1.3,3.3,72,0.00,,,0.00,WUHU216HW,2013-06-12 06:20:00,
2013-06-11 23:25:00,58.2,49.2,29.90,SSE,158,4.4,4.4,72,0.00,,,0.00,WUHU216HW,2013-06-12 06:25:00,
2013-06-11 23:30:00,58.1,49.1,29.90,South,180,0.0,4.4,72,0.00,,,0.00,WUHU216HW,2013-06-12 06:30:00,
2013-06-11 23:35:00,57.9,48.9,29.90,SE,135,0.0,4.4,72,0.00,,,0.00,WUHU216HW,2013-06-12 06:35:00,
2013-06-11 23:40:00,57.9,48.9,29.90,SE,135,1.5,2.0,72,0.00,,,0.00,WUHU216HW,2013-06-12 06:40:00,
2013-06-11 23:45:00,57.9,48.9,29.90,South,180,1.3,1.5,72,0.00,,,0.00,WUHU216HW,2013-06-12 06:45:00,
2013-06-11 23:50:00,57.7,49.1,29.90,SW,225,1.7,1.7,73,0.00,,,0.00,WUHU216HW,2013-06-12 06:50:00,
2013-06-11 23:55:00,57.5,49.2,29.90,SE,135,0.0,1.7,74,0.00,,,0.00,WUHU216HW,2013-06-12 06:55:00,